• In Hungary
  • List of Countries
  • For 7 days
  • Water Temperature
  • Satellite Maps
  • Weather Map
  • News
  • Weather Widgets
  • user-avatar
    Login

    Hourly Weather Siofok

    Today, 21 September, Friday

    Time Temperature Precipitation Wind Pressure Humidity
    00:00 +20°C° 0 mm 1 mps 754 mmHg 56%
    01:00 +18°C° 0 mm 0 mps 754 mmHg 57%
    02:00 +19°C° 0 mm 1 mps 753 mmHg 58%
    03:00 +19°C° 0 mm 1 mps 753 mmHg 59%
    04:00 +19°C° 0 mm 1 mps 753 mmHg 60%
    05:00 +19°C° 0 mm 1 mps 753 mmHg 58%
    06:00 +20°C° 0 mm 1 mps 753 mmHg 56%
    07:00 +21°C° 0 mm 1 mps 753 mmHg 54%
    08:00 +23°C° 0 mm 2 mps 753 mmHg 48%
    09:00 +26°C° 0 mm 2 mps 753 mmHg 41%
    10:00 +28°C° 0 mm 3 mps 753 mmHg 35%
    11:00 +29°C° 0 mm 3 mps 752 mmHg 33%
    12:00 +30°C° 0 mm 3 mps 752 mmHg 30%
    13:00 +32°C° 0 mm 4 mps 751 mmHg 28%
    14:00 +32°C° 0 mm 4 mps 751 mmHg 28%
    15:00 +31°C° 0 mm 3 mps 750 mmHg 29%
    16:00 +31°C° 0 mm 3 mps 750 mmHg 29%
    17:00 +29°C° 0 mm 2 mps 750 mmHg 34%
    18:00 +26°C° 0 mm 2 mps 750 mmHg 39%
    19:00 +24°C° 0 mm 1 mps 750 mmHg 43%
    20:00 +24°C° 0 mm 1 mps 750 mmHg 46%
    21:00 +23°C° 0 mm 1 mps 750 mmHg 49%
    22:00 +22°C° 0 mm 1 mps 750 mmHg 52%
    23:00 +22°C° 0 mm 1 mps 750 mmHg 56%

    Tomorrow, 22 September, Saturday

    Time Temperature Precipitation Wind Pressure Humidity
    00:00 +21°C° 0 mm 1 mps 751 mmHg 59%
    01:00 +21°C° 0 mm 1 mps 751 mmHg 62%
    02:00 +20°C° 0 mm 2 mps 751 mmHg 64%
    03:00 +20°C° 0 mm 3 mps 751 mmHg 66%
    04:00 +20°C° 0 mm 4 mps 752 mmHg 69%
    05:00 +20°C° 0 mm 6 mps 752 mmHg 64%
    06:00 +18°C° 0 mm 8 mps 753 mmHg 59%
    07:00 +18°C° 0 mm 9 mps 754 mmHg 53%
    08:00 +18°C° 0 mm 9 mps 755 mmHg 51%
    09:00 +17°C° 0 mm 9 mps 756 mmHg 48%
    10:00 +16°C° 0 mm 8 mps 757 mmHg 45%
    11:00 +16°C° 0.1 mm 7 mps 757 mmHg 49%
    12:00 +15°C° 0.1 mm 6 mps 757 mmHg 53%
    13:00 +14°C° 0.1 mm 5 mps 758 mmHg 57%
    14:00 +13°C° 0.3 mm 4 mps 758 mmHg 63%
    15:00 +12°C° 0.3 mm 3 mps 758 mmHg 69%
    16:00 +13°C° 0.3 mm 2 mps 758 mmHg 74%
    17:00 +13°C° 0.1 mm 2 mps 758 mmHg 76%
    18:00 +12°C° 0.1 mm 2 mps 759 mmHg 78%
    19:00 +12°C° 0.1 mm 2 mps 759 mmHg 80%
    20:00 +12°C° 0 mm 2 mps 759 mmHg 81%
    21:00 +11°C° 0 mm 3 mps 759 mmHg 82%
    22:00 +11°C° 0 mm 3 mps 760 mmHg 83%
    23:00 +11°C° 0 mm 3 mps 759 mmHg 84%

    Day after tomorrow, 23 September, Sunday

    Time Temperature Precipitation Wind Pressure Humidity
    00:00 +11°C° 0 mm 3 mps 759 mmHg 85%
    01:00 +11°C° 0 mm 3 mps 759 mmHg 86%
    02:00 +12°C° 0 mm 2 mps 759 mmHg 86%
    03:00 +12°C° 0 mm 2 mps 759 mmHg 86%
    04:00 +12°C° 0 mm 2 mps 759 mmHg 86%
    05:00 +13°C° 0 mm 2 mps 759 mmHg 84%
    06:00 +13°C° 0 mm 2 mps 759 mmHg 82%
    07:00 +13°C° 0 mm 1 mps 759 mmHg 80%
    08:00 +14°C° 0 mm 2 mps 759 mmHg 76%
    09:00 +15°C° 0 mm 2 mps 759 mmHg 71%
    10:00 +16°C° 0 mm 2 mps 759 mmHg 67%
    11:00 +17°C° 0 mm 2 mps 759 mmHg 61%
    12:00 +19°C° 0 mm 2 mps 758 mmHg 55%
    13:00 +20°C° 0 mm 2 mps 758 mmHg 49%
    14:00 +21°C° 0 mm 2 mps 757 mmHg 46%
    15:00 +22°C° 0 mm 3 mps 757 mmHg 43%
    16:00 +24°C° 0 mm 3 mps 756 mmHg 40%
    17:00 +21°C° 0 mm 3 mps 756 mmHg 43%
    18:00 +20°C° 0 mm 2 mps 755 mmHg 47%
    19:00 +18°C° 0 mm 2 mps 755 mmHg 51%
    20:00 +18°C° 0 mm 3 mps 754 mmHg 51%
    21:00 +18°C° 0 mm 3 mps 754 mmHg 51%
    22:00 +17°C° 0 mm 3 mps 753 mmHg 52%
    23:00 +18°C° 0 mm 4 mps 752 mmHg 51%

    24 September, Monday

    Time Temperature Precipitation Wind Pressure Humidity
    00:00 +18°C° 0 mm 4 mps 751 mmHg 51%
    01:00 +17°C° 0 mm 5 mps 750 mmHg 50%
    02:00 +17°C° 0 mm 6 mps 749 mmHg 53%
    03:00 +19°C° 0 mm 6 mps 748 mmHg 55%
    04:00 +18°C° 0 mm 7 mps 747 mmHg 58%
    05:00 +20°C° 0 mm 7 mps 746 mmHg 61%
    06:00 +21°C° 0 mm 7 mps 746 mmHg 64%
    07:00 +22°C° 0 mm 7 mps 746 mmHg 67%
    08:00 +22°C° 0.7 mm 7 mps 747 mmHg 67%
    09:00 +23°C° 0.7 mm 7 mps 747 mmHg 67%
    10:00 +23°C° 0.7 mm 7 mps 748 mmHg 68%
    11:00 +22°C° 0.4 mm 9 mps 749 mmHg 58%
    12:00 +21°C° 0.4 mm 11 mps 750 mmHg 49%
    13:00 +19°C° 0.4 mm 13 mps 751 mmHg 40%
    14:00 +18°C° 0 mm 13 mps 752 mmHg 40%
    15:00 +17°C° 0 mm 13 mps 753 mmHg 40%
    16:00 +15°C° 0 mm 12 mps 754 mmHg 40%
    17:00 +14°C° 0 mm 11 mps 756 mmHg 41%
    18:00 +13°C° 0 mm 9 mps 757 mmHg 41%
    19:00 +13°C° 0 mm 8 mps 758 mmHg 42%
    20:00 +12°C° 0 mm 7 mps 759 mmHg 45%
    21:00 +12°C° 0 mm 5 mps 760 mmHg 47%
    22:00 +11°C° 0 mm 4 mps 761 mmHg 50%
    23:00 +10°C° 0 mm 5 mps 761 mmHg 52%

    25 September, Tuesday

    Time Temperature Precipitation Wind Pressure Humidity
    00:00 +9°C° 0 mm 5 mps 761 mmHg 54%
    01:00 +9°C° 0 mm 5 mps 762 mmHg 55%
    02:00 +9°C° 0 mm 6 mps 762 mmHg 58%
    03:00 +8°C° 0 mm 6 mps 762 mmHg 60%
    04:00 +8°C° 0 mm 6 mps 763 mmHg 62%
    05:00 +8°C° 0 mm 6 mps 763 mmHg 61%
    06:00 +8°C° 0 mm 7 mps 764 mmHg 59%
    07:00 +9°C° 0 mm 7 mps 764 mmHg 58%
    08:00 +10°C° 0 mm 8 mps 764 mmHg 50%
    09:00 +11°C° 0 mm 8 mps 765 mmHg 43%
    10:00 +12°C° 0 mm 8 mps 765 mmHg 35%
    11:00 +13°C° 0 mm 8 mps 765 mmHg 33%
    12:00 +15°C° 0 mm 8 mps 765 mmHg 31%
    13:00 +15°C° 0 mm 8 mps 765 mmHg 29%
    14:00 +15°C° 0 mm 7 mps 764 mmHg 29%
    15:00 +15°C° 0 mm 7 mps 764 mmHg 29%
    16:00 +15°C° 0 mm 6 mps 764 mmHg 30%
    17:00 +13°C° 0 mm 5 mps 764 mmHg 35%
    18:00 +11°C° 0 mm 3 mps 764 mmHg 40%
    19:00 +10°C° 0 mm 2 mps 764 mmHg 45%
    20:00 +9°C° 0 mm 2 mps 764 mmHg 46%
    21:00 +9°C° 0 mm 2 mps 764 mmHg 48%
    22:00 +9°C° 0 mm 2 mps 764 mmHg 50%
    23:00 +9°C° 0 mm 2 mps 764 mmHg 52%

    26 September, Wednesday

    Time Temperature Precipitation Wind Pressure Humidity
    00:00 +8°C° 0 mm 2 mps 764 mmHg 54%
    01:00 +8°C° 0 mm 3 mps 763 mmHg 56%
    02:00 +8°C° 0 mm 3 mps 763 mmHg 57%
    03:00 +7°C° 0 mm 4 mps 762 mmHg 57%
    04:00 +7°C° 0 mm 4 mps 762 mmHg 58%
    05:00 +7°C° 0 mm 5 mps 762 mmHg 58%
    06:00 +8°C° 0 mm 5 mps 762 mmHg 57%
    07:00 +9°C° 0 mm 6 mps 762 mmHg 56%
    08:00 +10°C° 0 mm 7 mps 762 mmHg 55%
    09:00 +11°C° 0 mm 7 mps 763 mmHg 54%
    10:00 +13°C° 0 mm 8 mps 763 mmHg 53%
    11:00 +15°C° 0 mm 8 mps 763 mmHg 46%
    12:00 +16°C° 0 mm 8 mps 762 mmHg 40%
    13:00 +17°C° 0 mm 8 mps 762 mmHg 33%
    14:00 +17°C° 0 mm 7 mps 762 mmHg 33%
    15:00 +17°C° 0 mm 7 mps 762 mmHg 33%
    16:00 +17°C° 0 mm 6 mps 762 mmHg 33%
    17:00 +15°C° 0 mm 5 mps 763 mmHg 38%
    18:00 +13°C° 0 mm 4 mps 763 mmHg 43%
    19:00 +11°C° 0 mm 3 mps 764 mmHg 48%
    20:00 +10°C° 0 mm 2 mps 764 mmHg 50%
    21:00 +10°C° 0 mm 2 mps 764 mmHg 51%
    22:00 +9°C° 0 mm 2 mps 764 mmHg 53%
    23:00 +9°C° 0 mm 2 mps 765 mmHg 54%
    Show more